Theta_e
317 317 316 315 315 314 314 314 314 315 315 316 316 317 318 318 318 316 308 312 318 328 325 317 316 313 311 307 309 309 301 299 301 301 303 308 305 309 309 307 310 311 312 315 316
317 316 315 315 315 314 314 314 314 315 316 316 316 317 317 318 314 310 319 322 324 325 314 311 308 310 307 304 307 304 299 299 303 304 303 304 304 305 304 305 306 308 312 313 315
316 316 316 315 314 314 314 315 315 316 316 316 316 317 318 319 310 309 324 323 323 322 316 313 311 308 304 306 304 302 299 301 301 303 304 304 304 307 304 303 306 306 310 312 313
316 315 315 314 314 314 314 315 316 316 316 316 316 318 319 316 300 311 324 323 325 319 314 310 308 304 302 301 304 300 302 302 303 305 304 303 306 303 305 306 309 310 311 311 312
315 315 314 313 314 315 315 315 316 316 316 316 317 320 317 307 305 313 326 320 316 314 310 308 306 304 301 301 302 300 301 303 304 304 304 304 302 302 303 307 309 310 310 310 312
316 315 313 313 314 315 315 316 315 315 315 316 319 318 313 302 313 318 318 315 314 312 310 309 306 306 303 301 300 302 302 302 304 303 304 302 302 303 304 307 306 308 310 311 311
316 315 314 314 315 315 315 315 315 314 315 317 320 318 309 306 316 320 318 314 315 313 309 310 310 306 305 302 305 303 300 302 302 303 302 304 300 301 306 307 307 308 309 310 312
316 315 314 315 315 315 315 314 314 314 315 319 319 319 306 317 321 317 317 314 316 315 313 313 312 308 305 306 304 301 300 296 301 302 303 303 296 304 307 307 306 308 308 309 311
316 315 314 314 315 315 314 314 315 315 317 319 319 314 304 317 311 315 316 310 312 313 313 312 310 306 305 300 298 300 294 296 298 303 302 301 298 304 307 307 307 308 309 309 311
315 315 314 314 314 314 313 313 316 318 319 317 315 307 308 304 310 311 315 313 309 309 307 306 305 301 301 298 291 293 294 296 295 300 301 300 299 304 306 306 306 308 309 310 310
315 314 314 314 314 313 312 316 312 308 310 304 304 304 305 310 312 310 311 310 309 307 301 304 298 295 298 299 299 297 296 295 298 301 299 299 300 303 306 306 306 307 308 310 311
314 314 314 314 314 311 315 310 307 309 305 307 307 307 308 310 303 307 312 304 303 299 302 300 296 300 301 300 298 297 295 295 299 301 300 299 299 303 305 306 307 308 309 309 311
313 314 313 313 313 314 313 310 314 312 307 304 306 305 305 307 302 303 307 304 300 298 298 296 298 301 299 298 296 297 296 296 295 299 301 300 298 301 303 306 308 309 310 311 311
312 313 312 311 310 315 311 313 315 314 301 298 301 303 305 305 300 307 307 303 299 295 297 296 299 297 297 296 297 293 299 297 296 295 292 300 289 298 302 303 305 307 309 310 311
312 313 312 309 314 311 312 316 315 314 291 298 300 308 306 301 302 303 308 304 297 296 297 294 296 296 294 295 298 295 299 298 298 296 295 295 292 297 302 300 302 304 306 309 310
312 312 311 315 316 313 316 315 315 300 289 295 300 299 300 301 300 303 302 305 303 298 299 298 302 299 298 300 300 301 298 297 297 295 289 294 294 295 299 300 302 305 307 307 308
311 311 312 315 311 315 317 313 300 293 298 294 295 299 299 297 297 298 297 297 294 290 292 296 296 298 301 298 301 299 295 288 287 287 288 295 292 295 301 303 304 304 306 308 310
310 307 309 315 316 316 313 304 293 294 294 298 298 299 294 296 296 296 295 294 297 296 292 289 288 295 299 296 294 294 292 286 280 285 288 295 289 298 302 304 305 307 308 308 310
307 319 319 315 315 315 307 296 295 295 297 296 297 294 294 295 295 295 294 293 295 297 291 290 289 298 299 299 298 294 291 296 290 291 285 290 295 300 302 302 305 305 307 309 311
312 315 313 315 315 312 303 293 297 298 299 298 292 294 292 294 292 293 293 296 294 298 300 294 287 295 296 299 299 297 298 290 291 282 282 289 291 292 297 299 302 304 306 309 310
314 310 314 316 314 308 300 297 297 300 300 296 295 294 294 292 293 292 292 295 297 297 300 297 291 292 297 294 292 293 291 292 293 291 284 285 289 300 298 301 301 303 305 308 309
312 306 315 316 304 304 300 297 296 298 301 298 298 296 295 295 293 293 292 294 300 300 294 297 294 289 291 298 300 297 294 294 287 287 291 290 289 302 301 302 304 304 305 307 309
305 307 316 313 299 300 301 299 298 297 298 297 296 297 298 295 290 293 294 297 299 298 294 296 291 285 289 295 297 294 296 296 295 293 287 286 290 302 303 302 303 304 306 307 309
306 301 307 308 306 300 297 298 297 300 298 298 298 298 296 295 297 293 294 297 299 298 299 298 288 286 284 290 294 291 294 294 291 285 289 290 292 297 299 299 302 303 305 305 305
306 302 302 298 301 300 300 297 296 295 298 300 298 296 296 292 294 293 295 295 297 299 298 297 287 290 291 294 294 292 291 291 289 291 285 290 290 295 297 299 302 303 302 301 303
303 301 306 300 301 299 296 298 294 296 297 296 297 297 298 295 295 293 295 295 293 297 295 295 287 290 288 293 293 291 293 293 292 292 291 291 291 299 300 302 301 300 299 299 301
309 310 303 300 298 297 298 296 296 298 299 300 298 297 295 298 299 300 300 299 298 296 292 287 287 288 286 292 292 288 293 292 293 294 292 288 295 298 297 297 298 297 299 300 301
Wind_Speed
17 16 15 14 12 12 11 10 10 10 10 10 11 11 12 13 13 8 12 6 5 8 9 1 4 4 5 4 2 4 8 11 12 10 11 1 10 4 1 14 14 10 12 12 8
17 16 15 13 12 11 10 10 10 10 10 10 11 11 11 11 3 15 5 3 3 7 3 3 4 3 4 3 2 7 8 6 8 5 9 9 12 13 9 11 11 15 11 6 6
19 16 14 13 12 11 11 10 10 10 10 10 10 10 10 11 8 11 4 1 5 10 3 3 1 3 2 3 1 2 8 3 4 4 8 11 14 14 12 14 10 9 14 12 11
18 17 15 12 11 10 10 10 11 11 11 11 11 11 10 6 4 6 1 3 7 9 3 2 3 3 2 2 0 9 2 5 3 8 10 14 14 18 18 16 12 11 13 15 13
17 17 15 12 11 10 10 10 10 10 10 10 11 11 9 9 10 5 3 4 3 3 7 4 6 3 2 2 5 10 2 6 9 13 15 13 18 20 22 18 17 15 13 16 16
19 17 14 12 11 10 9 9 9 9 9 9 11 9 7 14 2 1 2 3 4 4 5 7 6 7 1 5 9 3 9 12 12 12 9 12 14 13 16 19 19 13 15 14 17
20 17 15 13 11 10 9 8 8 8 7 9 8 6 11 9 1 2 3 3 2 4 5 3 6 7 6 7 2 10 13 11 7 7 12 9 18 22 15 13 14 18 15 14 15
22 18 17 13 11 10 10 9 6 4 6 7 6 6 8 2 3 5 2 4 4 4 5 4 5 9 6 5 12 11 10 10 5 6 8 9 19 18 7 13 16 19 17 16 15
23 19 17 14 11 9 9 6 3 4 5 6 7 7 8 6 2 4 5 5 5 4 3 5 8 10 8 11 11 12 9 14 12 7 14 12 19 14 6 15 19 18 18 17 16
26 22 18 15 12 8 5 4 5 7 6 4 2 6 5 8 6 7 2 5 6 7 10 9 8 11 11 10 11 16 17 16 17 12 15 20 24 22 20 20 20 19 19 18 17
27 24 19 15 12 5 5 5 6 6 2 6 5 3 4 6 1 7 4 5 6 9 11 6 10 14 16 13 14 15 18 20 19 16 17 20 24 24 21 21 21 21 20 20 19
27 24 20 14 11 5 8 5 6 6 3 3 2 2 1 5 8 6 7 5 7 12 14 11 16 14 13 14 15 18 20 21 18 15 17 23 28 24 23 24 24 21 21 20 19
27 24 20 15 10 6 6 7 6 3 6 6 3 1 5 8 3 5 10 10 11 13 13 16 19 21 19 20 19 19 19 20 20 19 20 22 24 17 4 9 13 15 16 17 19
27 24 19 14 3 2 2 4 8 5 6 6 5 3 3 4 5 1 5 6 10 12 16 12 6 11 15 18 17 20 16 18 18 17 13 15 12 18 12 12 8 7 10 12 16
27 24 17 8 4 3 6 9 2 5 5 4 4 3 3 5 8 6 4 7 12 16 10 10 17 14 17 18 16 18 9 14 16 18 21 19 15 7 7 8 6 5 2 8 10
28 23 14 4 3 5 7 1 5 7 1 3 1 4 8 7 4 5 7 7 11 8 7 14 15 12 10 8 5 7 12 18 21 16 14 15 15 7 4 8 3 10 6 3 3
29 23 9 4 6 9 4 5 7 5 3 3 4 8 13 7 7 6 12 11 6 8 8 14 8 5 7 11 10 10 13 9 6 6 10 6 9 13 12 15 11 6 6 6 7
28 18 5 2 6 5 4 6 7 4 3 3 7 14 6 7 6 7 10 11 4 7 12 8 8 4 2 12 19 19 13 7 7 9 13 10 9 1 4 8 7 9 11 6 3
27 2 1 8 5 4 7 5 6 4 4 7 13 5 2 5 8 7 9 6 2 3 8 12 7 17 22 13 8 1 7 9 6 18 11 10 12 13 8 5 6 6 2 2 1
6 2 6 12 5 6 5 4 3 3 6 6 7 2 9 11 9 8 8 2 4 2 4 8 20 9 3 8 13 15 7 7 5 6 9 8 12 9 6 1 3 4 2 1 3
4 4 7 11 4 4 2 3 4 3 7 4 7 10 10 9 10 10 6 6 2 0 7 14 8 9 16 13 10 4 12 8 8 9 8 13 4 8 2 8 5 7 1 6 8
4 3 8 8 4 2 3 5 3 3 3 6 7 7 10 11 11 8 7 4 2 9 13 6 8 14 21 22 16 16 17 15 9 10 11 15 14 11 5 5 2 4 7 12 16
6 4 4 8 3 3 2 3 3 5 3 4 5 2 9 9 6 8 10 2 6 10 4 7 5 9 10 6 2 6 10 14 17 16 17 19 13 4 6 8 11 12 13 14 15
5 4 3 4 3 4 5 1 4 2 8 5 9 8 7 12 11 10 13 8 2 12 17 10 7 16 15 19 18 18 21 20 14 9 19 22 28 23 22 19 16 16 12 16 16
4 4 4 4 1 5 3 2 6 4 3 4 5 7 10 9 16 20 12 13 17 15 7 4 6 13 21 24 24 25 26 24 24 24 20 23 29 26 25 26 15 11 14 16 17
6 5 1 8 6 6 2 2 6 5 5 8 12 11 15 17 18 25 22 17 11 8 2 1 6 9 14 24 24 23 25 23 21 24 26 27 30 23 16 8 13 16 15 16 20
2 2 5 2 4 6 3 3 5 9 7 7 12 17 19 18 14 20 21 22 21 18 5 4 3 4 16 15 19 18 10 7 14 16 14 17 21 21 21 21 16 17 17 22 25
Wind_Direction
360 359 357 358 354 352 348 343 342 343 341 339 338 338 337 335 293 194 62 43 335 308 289 225 162 142 184 129 203 253 249 249 246 233 246 265 281 229 229 278 284 279 284 304 336
358 357 357 356 350 348 346 342 337 334 335 335 336 334 331 328 142 73 40 314 302 302 274 339 96 192 125 128 148 256 257 278 358 334 274 292 291 296 292 259 265 278 265 269 309
358 357 356 356 347 346 342 337 332 328 328 330 330 323 318 299 119 62 85 342 304 288 329 332 232 249 135 205 145 172 280 76 223 300 281 297 290 288 279 271 260 279 297 295 304
357 357 355 351 345 342 338 331 326 324 322 323 321 316 315 245 62 66 107 293 292 288 242 14 253 225 258 222 9 256 215 253 257 279 265 269 286 279 278 279 285 269 286 285 276
357 356 352 347 341 337 332 325 320 317 314 312 310 310 272 103 82 96 226 229 273 28 36 20 27 317 311 303 266 252 189 252 264 277 273 271 262 265 271 278 271 263 266 269 277
358 356 352 346 336 333 329 318 311 306 302 299 305 305 256 85 43 4 251 283 24 10 37 28 20 356 316 299 281 12 287 279 270 270 283 275 269 249 259 256 268 276 269 270 276
356 356 351 344 335 328 322 311 298 292 286 290 300 287 68 76 351 345 254 331 323 331 338 12 336 306 336 288 355 285 272 280 232 240 285 292 267 243 248 264 263 275 263 260 263
357 354 347 343 339 327 322 317 291 248 258 277 279 265 81 120 301 256 239 231 228 257 281 303 292 290 273 314 253 266 267 260 157 298 284 246 279 292 189 254 264 270 270 265 259
354 352 347 341 335 326 325 326 129 177 234 265 246 280 91 144 256 27 315 307 282 204 209 253 262 289 259 257 277 199 281 298 292 234 288 258 281 291 241 265 276 268 266 261 261
353 350 344 337 332 325 315 260 147 196 210 243 252 229 85 14 359 328 3 272 283 280 246 230 245 260 250 251 287 318 301 299 295 306 287 278 274 276 274 265 262 263 262 259 255
351 348 344 338 332 325 192 203 205 167 96 14 37 59 48 10 226 34 10 277 254 252 268 291 274 274 297 302 293 295 287 286 287 297 290 282 281 281 274 265 262 257 251 252 248
349 347 343 336 328 290 266 54 39 350 144 84 104 212 320 338 306 31 312 304 313 294 303 258 255 279 303 286 279 279 281 281 288 292 299 294 284 285 274 265 261 258 255 248 249
347 345 341 329 317 268 42 51 334 238 254 148 115 342 13 317 342 350 341 325 301 298 296 292 286 293 284 279 276 273 279 294 299 303 280 274 287 266 207 242 248 254 255 254 251
344 344 340 326 275 33 83 344 312 213 240 136 187 133 330 7 196 334 359 327 309 311 315 287 306 294 281 279 283 283 291 305 291 284 288 324 289 294 301 283 284 270 243 244 236
342 342 337 332 343 319 2 323 207 222 244 110 138 63 319 329 328 143 339 325 313 318 288 272 313 305 299 294 297 287 317 286 287 280 284 272 257 292 214 278 112 63 338 249 243
337 338 328 228 241 35 328 177 219 227 150 155 216 301 303 331 272 295 302 306 303 284 271 283 294 293 298 300 296 318 271 289 269 261 266 268 240 275 274 3 312 330 279 234 303
332 329 306 299 341 333 303 216 240 269 142 123 317 319 319 313 299 315 318 316 323 321 326 317 309 316 275 284 207 243 303 302 279 180 250 94 288 269 295 300 311 310 314 297 244
326 318 153 18 328 300 233 240 256 57 344 9 306 308 297 1 332 312 296 316 166 311 311 345 315 359 34 305 302 292 287 264 302 294 317 309 261 20 297 321 308 299 279 275 261
313 186 206 2 326 271 262 251 359 5 358 321 303 264 214 269 316 313 303 307 303 323 334 316 293 311 286 303 254 286 226 273 279 256 260 237 248 233 244 224 87 21 52 142 320
320 269 48 343 315 255 261 349 318 332 322 301 296 312 318 332 313 326 307 126 294 259 342 310 308 301 346 290 253 249 299 248 226 266 267 266 290 264 165 80 104 100 95 156 295
271 230 32 343 262 245 321 0 313 352 312 294 301 292 302 329 302 304 269 292 254 262 295 299 267 275 296 273 270 234 245 245 275 273 272 291 302 53 291 295 325 312 279 312 318
304 234 17 331 248 358 357 346 351 293 269 281 279 280 288 318 296 287 256 274 131 311 305 347 295 287 283 284 276 265 250 250 249 253 251 282 277 304 314 294 23 259 268 300 313
344 323 21 303 349 357 341 285 276 295 319 307 285 260 311 301 306 268 283 323 275 292 313 2 257 299 287 148 114 266 246 251 256 266 252 268 264 216 221 224 272 314 309 312 300
305 307 106 63 45 331 344 293 294 230 282 281 287 299 293 288 268 270 280 301 260 284 299 278 213 237 261 289 302 274 265 263 248 249 262 252 273 271 283 295 312 313 323 308 312
2 57 14 318 87 324 290 299 295 307 226 281 261 253 310 296 300 281 279 292 291 290 275 219 250 241 249 266 278 279 279 275 267 262 255 281 283 287 291 288 306 319 303 293 288
324 332 216 288 291 270 126 213 287 299 257 291 269 310 306 288 282 288 289 290 293 277 274 359 270 274 267 261 258 277 280 276 272 271 261 264 268 270 270 313 291 300 286 288 285
6 176 283 196 243 273 278 294 281 312 277 284 279 303 295 290 306 299 289 282 273 271 224 242 253 270 286 304 301 287 298 254 268 280 289 281 293 306 311 311 296 289 283 289 288